Weather History for Poplar Bluff, MO

Change the Weather History Date:

Friday, January 18, 2013

  Actual Average Record
Temperature  
Mean Temperature 35 °F -  
Max Temperature 46 °F 41 °F 69 °F (1951)
Min Temperature 24 °F 24 °F -23 °F (1930)
Degree Days  
Heating Degree Days 30    
Moisture  
Dew Point 27 °F    
Average Humidity 74    
Maximum Humidity 88    
Minimum Humidity 56    
Precipitation  
Precipitation 0.00 in - - ()
Sea Level Pressure  
Sea Level Pressure 30.46 in    
Wind  
Wind Speed 3 mph (South)    
Max Wind Speed 15 mph    
Max Gust Speed -    
Visibility 10 miles    
Events      
Averages and records for this station are not official NWS values.
T = Trace of Precipitation, MM = Missing Value Source: NWS Daily Summary

Daily Weather History Graph

Daily Weather History Graph

Search for Another Location

Airport:

Trip Planner

Search our weather history database for the weather conditions in past years. The results will help you decide how hot, cold, wet, or windy it might be!

Date:

Astronomy

Jan. 18, 2013 Rise Set
Actual Time 7:11 AM CST 5:12 PM CST
Civil Twilight 6:43 AM CST 5:40 PM CST
Nautical Twilight 6:12 AM CST 6:11 PM CST
Astronomical Twilight 5:41 AM CST 6:42 PM CST
Moon 11:03 AM CST (1/18) No Moon Set
Length of Visible Light 10h 56m
Length of Day
10h 00m
Waxing Crescent, 47% of the Moon is Illuminated
Jan 18
Waxing Crescent
Jan 18
First Quarter
Jan 26
Full
Feb 3
Last Quarter
Feb 10
New

Hourly Weather History & Observations

Time (CST) Temp. Windchill Dew Point Humidity Pressure Visibility Wind Dir Wind Speed Gust Speed Precip Events Conditions
12:53 AM 28.0 °F - 23.0 °F 81% 30.53 in 10.0 mi Calm Calm - N/A   Clear
1:53 AM 26.1 °F - 21.9 °F 84% 30.55 in 10.0 mi Calm Calm - N/A   Clear
2:53 AM 26.1 °F - 21.9 °F 84% 30.55 in 10.0 mi Calm Calm - N/A   Clear
3:53 AM 25.0 °F - 21.0 °F 85% 30.55 in 10.0 mi Calm Calm - N/A   Clear
4:53 AM 25.0 °F - 21.9 °F 88% 30.55 in 10.0 mi Calm Calm - N/A   Clear
5:53 AM 25.0 °F - 21.0 °F 85% 30.54 in 10.0 mi Calm Calm - N/A   Clear
6:53 AM 24.1 °F - 19.9 °F 84% 30.55 in 10.0 mi Calm Calm - N/A   Clear
7:53 AM 26.1 °F - 21.9 °F 84% 30.57 in 10.0 mi Calm Calm - N/A   Clear
8:53 AM 30.0 °F - 26.1 °F 85% 30.57 in 10.0 mi Calm Calm - N/A   Clear
9:53 AM 35.1 °F 29.3 °F 25.0 °F 67% 30.57 in 10.0 mi SSE 6.9 mph - N/A   Clear
10:53 AM 37.9 °F 32.7 °F 26.1 °F 62% 30.56 in 10.0 mi South 6.9 mph - N/A   Clear
11:53 AM 39.9 °F 34.5 °F 27.0 °F 60% 30.51 in 10.0 mi SSW 8.1 mph - N/A   Clear
12:53 PM 43.0 °F 38.8 °F 28.9 °F 58% 30.46 in 10.0 mi SSW 6.9 mph - N/A   Clear
1:53 PM 45.0 °F 39.7 °F 30.0 °F 56% 30.43 in 10.0 mi SSW 10.4 mph - N/A   Clear
2:53 PM 46.0 °F 39.6 °F 30.9 °F 56% 30.40 in 10.0 mi South 15.0 mph - N/A   Clear
3:53 PM 46.0 °F 40.6 °F 33.1 °F 61% 30.38 in 10.0 mi SSW 11.5 mph - N/A   Clear
4:53 PM 45.0 °F 40.6 °F 33.1 °F 63% 30.37 in 10.0 mi South 8.1 mph - N/A   Clear
5:53 PM 42.1 °F 37.7 °F 33.1 °F 70% 30.36 in 10.0 mi South 6.9 mph - N/A   Clear
6:53 PM 39.9 °F 35.1 °F 32.0 °F 73% 30.35 in 10.0 mi SSW 6.9 mph - N/A   Clear
7:53 PM 39.0 °F 33.4 °F 32.0 °F 76% 30.35 in 10.0 mi South 8.1 mph - N/A   Clear
8:53 PM 39.9 °F 33.4 °F 32.0 °F 73% 30.33 in 10.0 mi South 10.4 mph - N/A   Clear
9:53 PM 37.9 °F 31.5 °F 30.9 °F 76% 30.32 in 10.0 mi SSW 9.2 mph - N/A   Clear
10:53 PM 36.0 °F 31.1 °F 30.0 °F 79% 30.30 in 10.0 mi SSW 5.8 mph - N/A   Clear
11:53 PM 37.0 °F 34.5 °F 30.9 °F 79% 30.29 in 10.0 mi South 3.5 mph - N/A   Clear